Sexton Summit, OR

4:01 AM PDT on July 24, 2017 (GMT -0700)
Sexton Summit

Weather History for KSXT - November, 2012

Change the Weather History Date:

Wednesday, November 21, 2012

  Actual Average Record
Temperature  
Mean Temperature 34 °F -  
Max Temperature 37 °F 41 °F 62 °F (2005)
Min Temperature 32 °F 33 °F 26 °F (2003)
Degree Days  
Heating Degree Days 30    
Moisture  
Dew Point 34 °F    
Average Humidity 100    
Maximum Humidity 100    
Minimum Humidity 93    
Precipitation  
Precipitation 0.32 in - - ()
Sea Level Pressure  
Sea Level Pressure 30.03 in    
Wind  
Wind Speed 10 mph (SSW)    
Max Wind Speed 17 mph    
Max Gust Speed 31 mph    
Visibility 2 miles    
Events Fog , Rain , Snow    
Averages and records for this station are not official NWS values.
T = Trace of Precipitation, MM = Missing Value Source: NWS Daily Summary

Daily Weather History Graph

Daily Weather History Graph

Search for Another Location

Airport or City:

Trip Planner

Search our weather history database for the weather conditions in past years. The results will help you decide how hot, cold, wet, or windy it might be!

Date:

Astronomy

Nov. 21, 2012 Rise Set
Actual Time 7:13 AM PST 4:45 PM PST
Civil Twilight 6:42 AM PST 5:16 PM PST
Nautical Twilight 6:07 AM PST 5:51 PM PST
Astronomical Twilight 5:34 AM PST 6:24 PM PST
Moon 1:12 PM PST (11/21) 12:29 AM PST (11/21)
Length of Visible Light 10h 34m
Length of Day
9h 32m
Waxing Gibbous, 63% of the Moon is Illuminated
Nov 21
Waxing Gibbous
Nov 28
Full
Dec 6
Last Quarter
Dec 13
New
Dec 19
First Quarter

Hourly Weather History & Observations

Time (PST) Temp. Windchill Dew Point Humidity Pressure Visibility Wind Dir Wind Speed Gust Speed Precip Events Conditions
12:56 AM 37.0 °F 28.1 °F 37.0 °F 100% 29.73 in 0.2 mi SSW 15.0 mph 28.8 mph 0.03 in Fog , Rain Rain
1:36 AM 37.4 °F 31.4 °F 37.4 °F 100% 29.74 in 0.8 mi WSW 8.1 mph 24.2 mph 0.08 in Rain Light Rain
1:52 AM 37.0 °F 28.9 °F 37.0 °F 100% 29.77 in 1.2 mi SW 12.7 mph 23.0 mph 0.08 in Rain Light Rain
1:54 AM 37.4 °F 31.4 °F 37.4 °F 100% 29.75 in 2.0 mi WSW 8.1 mph 23.0 mph 0.00 in Rain Light Rain
2:02 AM 35.6 °F 25.9 °F 35.6 °F 100% 29.76 in 3.0 mi SW 16.1 mph 31.1 mph 0.00 in Rain Light Rain
2:09 AM 35.6 °F 28.6 °F 35.6 °F 100% 29.77 in 2.0 mi WSW 9.2 mph 31.1 mph 0.01 in Rain Rain
2:21 AM 35.6 °F 28.0 °F 35.6 °F 100% 29.77 in 1.5 mi WSW 10.4 mph 18.4 mph 0.01 in Rain Rain
2:29 AM 35.6 °F 27.5 °F 35.6 °F 100% 29.78 in 2.0 mi WSW 11.5 mph 24.2 mph 0.01 in Rain Light Rain
2:36 AM 35.6 °F 28.6 °F 35.6 °F 100% 29.78 in 1.8 mi SW 9.2 mph 24.2 mph 0.02 in Rain Light Rain
2:42 AM 35.6 °F 27.5 °F 35.6 °F 100% 29.78 in 3.0 mi SW 11.5 mph 24.2 mph 0.02 in Rain Light Rain
2:48 AM 35.6 °F 28.6 °F 35.6 °F 100% 29.78 in 1.8 mi SW 9.2 mph 18.4 mph 0.02 in Rain Light Rain
2:56 AM 36.0 °F 31.1 °F 36.0 °F 100% 29.81 in 1.0 mi Variable 5.8 mph 16.1 mph 0.02 in Rain Rain
3:08 AM 35.6 °F 29.2 °F 35.6 °F 100% 29.80 in 1.0 mi NW 8.1 mph - 0.03 in Rain Rain
3:20 AM 33.8 °F 27.0 °F 33.8 °F 100% 29.80 in 1.0 mi WSW 8.1 mph 28.8 mph 0.06 in Snow Light Snow
3:31 AM 33.8 °F 27.0 °F 33.8 °F 100% 29.80 in 1.5 mi SW 8.1 mph 18.4 mph 0.06 in Rain Light Rain
3:43 AM 33.8 °F 27.7 °F 33.8 °F 100% 29.80 in 2.0 mi Variable 6.9 mph - 0.07 in Rain Light Rain
3:55 AM 34.0 °F 24.6 °F 34.0 °F 100% 29.84 in 5.0 mi WSW 13.8 mph 28.8 mph 0.07 in Rain Light Rain
4:31 AM 33.8 °F 23.9 °F 33.8 °F 100% 29.83 in 3.0 mi SW 15.0 mph 23.0 mph 0.00 in   Overcast
4:36 AM 33.8 °F 25.8 °F 33.8 °F 100% 29.84 in 1.8 mi SW 10.4 mph 23.0 mph 0.00 in   Overcast
4:40 AM 33.8 °F 25.8 °F 33.8 °F 100% 29.83 in 2.0 mi SW 10.4 mph 21.9 mph 0.00 in Rain Light Rain
4:46 AM 33.8 °F 25.3 °F 33.8 °F 100% 29.84 in 3.0 mi SW 11.5 mph 25.3 mph 0.00 in Rain Light Rain
4:56 AM 33.1 °F 24.4 °F 33.1 °F 100% 29.89 in 5.0 mi SSW 11.5 mph 23.0 mph 0.00 in   Overcast
4:58 AM 33.8 °F 25.8 °F 33.8 °F 100% 29.85 in 2.0 mi SSW 10.4 mph 23.0 mph N/A   Overcast
5:00 AM 33.8 °F 25.8 °F 33.8 °F 100% 29.85 in 1.0 mi South 10.4 mph 23.0 mph 0.00 in Rain Light Rain
5:07 AM 33.8 °F 24.3 °F 33.8 °F 100% 29.85 in 0.5 mi SSW 13.8 mph 21.9 mph 0.00 in Fog , Rain Light Rain
5:14 AM 33.8 °F 24.3 °F 33.8 °F 100% 29.86 in 0.5 mi SSW 13.8 mph 21.9 mph 0.00 in Fog , Rain Light Rain
5:20 AM 33.8 °F 24.8 °F 33.8 °F 100% 29.86 in 0.2 mi SSW 12.7 mph 21.9 mph 0.00 in Fog , Rain Light Rain
5:31 AM 33.8 °F 24.8 °F 33.8 °F 100% 29.87 in 0.2 mi SSW 12.7 mph 21.9 mph 0.00 in Fog , Rain Light Rain
5:56 AM 33.1 °F 23.0 °F 33.1 °F 100% 29.92 in 0.2 mi South 15.0 mph 23.0 mph 0.00 in Fog , Snow Light Snow
6:23 AM 32.0 °F 25.6 °F 32.0 °F 100% 29.91 in 0.2 mi SW 6.9 mph 16.1 mph 0.02 in Fog , Snow Snow
6:54 AM 32.0 °F 24.8 °F 32.0 °F 100% 29.97 in 0.8 mi SW 8.1 mph - 0.11 in Snow Light Snow
6:58 AM 32.0 °F 24.8 °F 32.0 °F 100% 29.93 in 1.5 mi West 8.1 mph 18.4 mph 0.00 in Snow Light Snow
7:02 AM 32.0 °F 23.0 °F 32.0 °F 100% 29.94 in 4.0 mi SW 11.5 mph 18.4 mph 0.00 in   Overcast
7:06 AM 32.0 °F 23.6 °F 32.0 °F 100% 29.94 in 1.8 mi SW 10.4 mph 18.4 mph 0.00 in   Overcast
7:12 AM 32.0 °F 24.2 °F 32.0 °F 100% 29.94 in 1.0 mi SW 9.2 mph 17.3 mph 0.00 in   Overcast
7:16 AM 32.0 °F 25.6 °F 32.0 °F 100% 29.95 in 1.5 mi Variable 6.9 mph - 0.00 in   Overcast
7:23 AM 32.0 °F 25.6 °F 32.0 °F 100% 29.95 in 3.0 mi Variable 6.9 mph - 0.00 in   Overcast
7:56 AM 32.0 °F 26.4 °F 32.0 °F 100% 30.01 in 3.0 mi Variable 5.8 mph 24.2 mph 0.00 in Snow Light Snow
8:01 AM 32.0 °F 22.1 °F 32.0 °F 100% 29.97 in 1.5 mi SW 13.8 mph 24.2 mph 0.00 in Snow Light Snow
8:03 AM 32.0 °F 26.4 °F 32.0 °F 100% 29.97 in 1.2 mi Variable 5.8 mph 24.2 mph 0.00 in Snow Light Snow
8:10 AM 32.0 °F 23.0 °F 32.0 °F 100% 29.98 in 0.5 mi SW 11.5 mph 20.7 mph 0.00 in Fog , Snow Light Snow
8:18 AM 32.0 °F 25.6 °F 32.0 °F 100% 29.98 in 0.2 mi Variable 6.9 mph 19.6 mph 0.00 in Fog , Snow Light Snow
8:35 AM 32.0 °F 25.6 °F 32.0 °F 100% 29.99 in 0.8 mi Variable 6.9 mph - 0.01 in   Overcast
8:43 AM 32.0 °F 24.2 °F 32.0 °F 100% 29.99 in 1.2 mi SSW 9.2 mph - 0.01 in   Overcast
8:45 AM 32.0 °F 24.2 °F 32.0 °F 100% 29.99 in 2.0 mi SSW 9.2 mph - 0.01 in   Overcast
8:52 AM 32.0 °F 23.0 °F 32.0 °F 100% 30.00 in 4.0 mi SSW 11.5 mph 18.4 mph 0.01 in   Mostly Cloudy
8:56 AM 32.0 °F 23.0 °F 32.0 °F 100% 30.04 in 8.0 mi SSW 11.5 mph 18.4 mph 0.01 in   Mostly Cloudy
9:13 AM 32.0 °F 22.5 °F 32.0 °F 100% 30.01 in 1.5 mi SSW 12.7 mph 19.6 mph N/A   Mostly Cloudy
9:15 AM 32.0 °F 23.0 °F 32.0 °F 100% 30.01 in 0.8 mi SSW 11.5 mph 18.4 mph N/A   Mostly Cloudy
9:29 AM 32.0 °F 22.5 °F 32.0 °F 100% 30.02 in 0.2 mi South 12.7 mph 18.4 mph N/A Fog Fog
9:54 AM 33.8 °F 23.9 °F 33.8 °F 100% 30.04 in 0.2 mi South 15.0 mph 18.4 mph N/A Fog Fog
9:56 AM 33.1 °F 23.4 °F 33.1 °F 100% 30.08 in 0.2 mi South 13.8 mph 18.4 mph N/A Fog Fog
10:56 AM 34.0 °F 25.5 °F 34.0 °F 100% 30.10 in 0.2 mi SSW 11.5 mph 17.3 mph N/A Fog Fog
11:56 AM 35.1 °F 27.9 °F 35.1 °F 100% 30.11 in 0.2 mi SSW 9.2 mph - N/A Fog Fog
12:18 PM 33.8 °F 25.3 °F 33.8 °F 100% 30.07 in 0.2 mi SW 11.5 mph 25.3 mph 0.00 in Fog , Rain Light Rain
12:25 PM 33.8 °F 26.4 °F 33.8 °F 100% 30.07 in 0.5 mi SSW 9.2 mph 24.2 mph 0.00 in Fog , Rain Light Rain
12:29 PM 33.8 °F 25.3 °F 33.8 °F 100% 30.07 in 4.0 mi SW 11.5 mph 24.2 mph 0.00 in   Mostly Cloudy
12:47 PM 33.8 °F 24.8 °F 33.8 °F 100% 30.07 in 2.5 mi SSW 12.7 mph 20.7 mph 0.00 in   Overcast
12:50 PM 33.8 °F 24.3 °F 33.8 °F 100% 30.07 in 1.0 mi South 13.8 mph 21.9 mph 0.00 in   Mostly Cloudy
12:52 PM 33.8 °F 24.8 °F 33.8 °F 100% 30.07 in 0.8 mi South 12.7 mph 21.9 mph 0.00 in   Mostly Cloudy
12:56 PM 34.0 °F 23.4 °F 34.0 °F 100% 30.12 in 0.2 mi SSW 17.3 mph 21.9 mph 0.00 in Fog Fog
1:11 PM 33.8 °F 25.3 °F 33.8 °F 100% 30.08 in 0.2 mi SSW 11.5 mph 20.7 mph N/A Fog Fog
1:19 PM 33.8 °F 25.3 °F 33.8 °F 100% 30.08 in 0.2 mi SSW 11.5 mph 24.2 mph N/A Fog Fog
1:56 PM 35.1 °F 26.9 °F 35.1 °F 100% 30.14 in 0.2 mi SSW 11.5 mph 23.0 mph N/A Fog Fog
2:17 PM 35.6 °F 28.0 °F 35.6 °F 100% 30.10 in 1.0 mi SSW 10.4 mph 19.6 mph N/A   Overcast
2:19 PM 35.6 °F 27.5 °F 35.6 °F 100% 30.10 in 2.5 mi SW 11.5 mph 19.6 mph N/A   Overcast
2:24 PM 35.6 °F 28.6 °F 35.6 °F 100% 30.10 in 1.8 mi South 9.2 mph 19.6 mph N/A   Overcast
2:26 PM 35.6 °F 28.6 °F 35.6 °F 100% 30.11 in 0.5 mi South 9.2 mph 19.6 mph N/A Fog Fog
2:34 PM 35.6 °F 27.5 °F 35.6 °F 100% 30.11 in 0.2 mi SSW 11.5 mph 17.3 mph N/A Fog Fog
2:42 PM 33.8 °F 25.8 °F 33.8 °F 100% 30.11 in 1.0 mi SSW 10.4 mph 21.9 mph N/A   Overcast
2:46 PM 33.8 °F 27.0 °F 33.8 °F 100% 30.12 in 0.2 mi SSW 8.1 mph 18.4 mph N/A Fog Fog
2:56 PM 34.0 °F 26.0 °F 34.0 °F 100% 30.18 in 0.2 mi SSW 10.4 mph - N/A Fog Fog
3:39 PM 33.8 °F 27.7 °F 33.8 °F 100% 30.14 in 0.2 mi SW 6.9 mph - 0.00 in Fog , Rain Light Rain
3:56 PM 34.0 °F 28.8 °F 34.0 °F 100% 30.21 in 0.2 mi SSW 5.8 mph - 0.00 in Fog Fog
4:43 PM 33.8 °F 27.0 °F 33.8 °F 100% 30.16 in 1.5 mi SSW 8.1 mph - N/A   Overcast
4:45 PM 33.8 °F 27.7 °F 33.8 °F 100% 30.16 in 0.8 mi SSW 6.9 mph - N/A   Overcast
4:50 PM 33.8 °F 27.0 °F 33.8 °F 100% 30.16 in 0.2 mi SSW 8.1 mph - N/A Fog Fog
4:56 PM 33.1 °F 26.9 °F 33.1 °F 100% 30.24 in 0.5 mi SSW 6.9 mph - N/A Fog Fog
5:00 PM 33.8 °F 27.0 °F 33.8 °F 100% 30.16 in 3.0 mi SSW 8.1 mph - N/A   Overcast
5:11 PM 33.8 °F 27.7 °F 33.8 °F 100% 30.17 in 1.8 mi South 6.9 mph - N/A   Overcast
5:15 PM 33.8 °F 27.7 °F 33.8 °F 100% 30.17 in 0.8 mi South 6.9 mph - N/A   Overcast
5:32 PM 33.8 °F 27.7 °F 33.8 °F 100% 30.17 in 1.5 mi South 6.9 mph - N/A   Mostly Cloudy
5:36 PM 33.8 °F 27.7 °F 33.8 °F 100% 30.17 in 4.0 mi SSW 6.9 mph - N/A   Mostly Cloudy
5:42 PM 33.8 °F 27.0 °F 33.8 °F 100% 30.18 in 10.0 mi South 8.1 mph - N/A   Scattered Clouds
6:18 PM 33.8 °F 27.7 °F 33.8 °F 100% 30.19 in 1.8 mi South 6.9 mph - N/A   Overcast
6:24 PM 33.8 °F 27.0 °F 33.8 °F 100% 30.19 in 0.8 mi South 8.1 mph - N/A   Overcast
6:56 PM 34.0 °F 27.2 °F 34.0 °F 100% 30.27 in 0.5 mi South 8.1 mph - N/A Fog Fog
7:03 PM 33.8 °F 27.0 °F 33.8 °F 100% 30.20 in 0.2 mi South 8.1 mph - N/A Fog Fog
7:56 PM 33.1 °F 26.9 °F 33.1 °F 100% 30.28 in 0.2 mi South 6.9 mph - 0.00 in Fog Fog
8:05 PM 33.8 °F 28.6 °F 33.8 °F 100% 30.21 in 0.5 mi South 5.8 mph - N/A Fog Fog
8:17 PM 33.8 °F 27.0 °F 33.8 °F 100% 30.20 in 1.0 mi SSE 8.1 mph - N/A   Overcast
8:25 PM 33.8 °F 27.7 °F 33.8 °F 100% 30.21 in 0.5 mi South 6.9 mph - N/A Fog Fog
8:42 PM 33.8 °F 27.7 °F 33.8 °F 100% 30.21 in 1.0 mi South 6.9 mph - N/A   Overcast
8:56 PM 33.1 °F 25.5 °F 33.1 °F 100% 30.28 in 4.0 mi SSW 9.2 mph - N/A   Overcast
9:56 PM 33.1 °F 26.1 °F 32.0 °F 96% 30.30 in 10.0 mi SSW 8.1 mph - N/A   Mostly Cloudy
10:07 PM 33.8 °F 27.7 °F 32.0 °F 93% 30.23 in 3.0 mi South 6.9 mph - N/A   Mostly Cloudy
10:16 PM 33.8 °F 27.0 °F 32.0 °F 93% 30.22 in 1.2 mi South 8.1 mph - N/A   Mostly Cloudy
10:25 PM 33.8 °F 27.0 °F 32.0 °F 93% 30.22 in 0.5 mi South 8.1 mph - N/A Fog Fog
10:32 PM 33.8 °F 27.0 °F 32.0 °F 93% 30.22 in 0.2 mi South 8.1 mph - N/A Fog Fog
10:39 PM 33.8 °F 27.7 °F 32.0 °F 93% 30.22 in 0.5 mi South 6.9 mph - N/A Fog Fog
10:56 PM 33.1 °F 26.9 °F 33.1 °F 100% 30.29 in 0.2 mi South 6.9 mph - N/A Fog Fog
11:32 PM 33.8 °F 26.4 °F 32.0 °F 93% 30.22 in 0.5 mi SSE 9.2 mph - N/A Fog Fog
11:56 PM 33.1 °F 24.9 °F 32.0 °F 96% 30.29 in 0.5 mi SE 10.4 mph - N/A Fog Fog